Flag for U.S.A. Weather past 2 weeks in Warminster Township, Pennsylvania, U.S.A.

Now
58 °F

Passing clouds.


Feels Like: 58 °F
Forecast: 62 / 81 °F
Wind: No wind

Location: Doylestown Airport

Current Time: Jul 31, 2014 at 7:05:14 AM

Latest Report: Jul 31, 2014 at 5:54 AM


Visibility: 10 mi

Pressure: 30.07 "Hg

Humidity: 97%

Dew point: 57 °F

Location of Warminster TownshipLocation

Historic Weather in Warminster Township — Graph

°F

Warminster Township temperature yesterday

Maximum temperature yesterday: 77 °F (at 3:54 PM)
Minimum temperature yesterday: 54 °F (at 5:54 AM)
Average temperature yesterday: 66 °F

Past Weeks' High & Low Weather Summary

 TemperatureHumidityPressure
High89 °F (Jul 23, 3:54 PM)100% (Jul 16, 5:54 AM)30.23 "Hg (Jul 16, 5:54 AM)
Low54 °F (Jul 30, 5:54 AM)40% (Jul 17, 5:54 PM)29.52 "Hg (Jul 28, 4:54 AM)
Average70 °F73%29.97 "Hg
* Reported Jul 16 5:54 AM — Jul 31 5:54 AM, Warminster Township, Weather by CustomWeather, © 2014

Note: Actual official high and low records may vary slightly from our data, if they occured in-between our weather recording intervals... More about our weather records

Advertising

Warminster Township weather history for previous 24 hours

 ConditionsComfort  
Time TempWeatherWind HumidityBarometerVisibility
5:54 AM
Jul 31
58 °FPassing clouds.No wind97%30.07 "Hg10 mi
4:54 AM57 °FClear.No wind96%30.06 "Hg10 mi
3:54 AM58 °FClear.No wind93%30.05 "Hg10 mi
2:54 AM59 °FClear.No wind93%30.05 "Hg10 mi
1:54 AM60 °FClear.No wind86%30.06 "Hg10 mi
12:54 AM61 °FClear.No wind83%30.06 "Hg10 mi
11:54 PM
Jul 30
61 °FClear.3 mph87%30.05 "Hg10 mi
10:54 PM62 °FClear.No wind83%30.05 "Hg10 mi
9:54 PM64 °FClear.No wind78%30.05 "Hg9 mi
8:54 PM66 °FSunny.No wind68%30.04 "Hg10 mi
7:54 PM72 °FSunny.5 mph52%30.02 "Hg10 mi
6:54 PM74 °FSunny.7 mph48%30.01 "Hg10 mi
5:54 PM74 °FPassing clouds.5 mph48%30.01 "Hg10 mi
4:54 PM76 °FSunny.5 mph45%30.01 "Hg10 mi
3:54 PM77 °FSunny.5 mph42%30.01 "Hg10 mi
2:54 PM76 °FPartly sunny.6 mph43%30.01 "Hg10 mi
1:54 PM75 °FPassing clouds.6 mph43%30.02 "Hg10 mi
12:54 PM76 °FPassing clouds.3 mph43%30.03 "Hg10 mi
11:54 AM73 °FSunny.6 mph48%30.04 "Hg10 mi
10:54 AM72 °FSunny.No wind49%30.04 "Hg10 mi
9:54 AM69 °FSunny.No wind57%30.05 "Hg10 mi
8:54 AM66 °FSunny.No wind68%30.04 "Hg10 mi
7:54 AM60 °FSunny.No wind80%30.03 "Hg10 mi
Weather by CustomWeather, © 2014

See weather overviewHow to use our weather pages